Location: Asarope
(8.2500°N, 4.4833°E)
Time: 00:33:33
(UTC+00:00)

GEOS 3 Rocket - Pass Details

Date: 07 June 2020
Orbit: 772 x 847 km, 115.0° (Epoch: 13 July)

Event Time Altitude Azimuth Distance (km) Brightness Sun altitude
Rises 03:18:59 0° 148° (SSE) 3,247 6.8 -28.3°
Reaches altitude 10° 03:21:14 10° 146° (SSE) 2,325 6.0 -27.8°
Maximum altitude 03:26:16 76° 61° (ENE) 811 3.6 -26.8°
Drops below altitude 10° 03:31:22 10° 336° (NNW) 2,362 6.1 -25.7°
Sets 03:33:40 0° 335° (NNW) 3,303 6.8 -25.2°
